This demonstration page uses our WeatherBlox Daily Observations layout. Learn more.

40.92945, -100.16068

Hourly Observations for January 29, 2015

Temp ( °F °C ) Dew Point ( °F °C ) Humidity (%) Winds ( mph kmh ) Pressure ( in mb ) Visibility ( mi km ) Precip ( " mm )
12:15 am 00:15 Cloudy 40 4.2 31 -0.3 73 73 N 25 41 30.27 1025 10 16.0934 N/A
12:35 am 00:35 Cloudy 39 4 31 -0.3 74 74 NNW 18 30 30.27 1025 10 16.0934 N/A
12:55 am 00:55 Cloudy 39 3.8 31 -0.5 74 74 N 23 37 30.27 1025 10 16.0934 N/A
1:15 am 01:15 Cloudy 39 3.8 31 -0.4 74 74 NNW 30 48 30.3 1026 10 16.0934 N/A
1:35 am 01:35 Cloudy 38 3.5 31 -0.5 75 75 NNW 29 46 30.3 1026 10 16.0934 N/A
1:55 am 01:55 Cloudy 38 3.3 31 -0.6 76 76 N 26 43 30.3 1026 10 16.0934 N/A
2:15 am 02:15 Cloudy 38 3.2 30 -1.2 73 73 NNW 22 35 30.33 1027 10 16.0934 N/A
2:35 am 02:35 Mostly Cloudy 37 2.8 28 -2.2 70 70 NNW 28 44 30.33 1027 10 16.0934 N/A
2:55 am 02:55 Partly Cloudy 37 2.5 27 -2.6 69 69 NNW 20 31 30.33 1027 10 16.0934 N/A
3:15 am 03:15 Partly Cloudy 37 2.5 27 -3 67 67 N 29 46 30.33 1027 10 16.0934 N/A
3:35 am 03:35 Partly Cloudy 35 1.8 27 -3 71 71 NNW 14 22 30.39 1029 10 16.0934 N/A
3:55 am 03:55 Partly Cloudy 35 1.8 27 -3 71 71 NNW 25 41 30.39 1029 10 16.0934 N/A
4:15 am 04:15 Mostly Cloudy 36 2.1 26 -3.1 69 69 NNW 18 30 30.39 1029 10 16.0934 N/A
4:35 am 04:35 Mostly Cloudy 36 2.1 26 -3.3 68 68 NNW 23 37 30.39 1029 10 16.0934 N/A
4:55 am 04:55 Mostly Cloudy 36 2.2 26 -3.1 68 68 NNW 22 35 30.39 1029 10 16.0934 N/A
5:15 am 05:15 Mostly Cloudy 37 2.6 26 -3.3 65 65 N 25 41 30.39 1029 10 16.0934 N/A
5:35 am 05:35 Cloudy 37 2.8 26 -3.2 65 65 NNW 20 31 30.42 1030 10 16.0934 N/A
5:55 am 05:55 Cloudy 37 2.7 26 -3.1 66 66 NNW 22 35 30.42 1030 10 16.0934 0 0
6:15 am 06:15 Cloudy 37 3 26 -3.4 63 63 NNW 26 43 30.42 1030 10 16.0934 N/A
6:35 am 06:35 Cloudy 37 3 26 -3.5 63 63 N 17 28 30.45 1031 10 16.0934 N/A
6:55 am 06:55 Cloudy 37 3 26 -3.5 63 63 N 24 39 30.45 1031 10 16.0934 N/A
7:15 am 07:15 Cloudy 37 2.5 25 -4 63 63 NNW 23 37 30.48 1032 10 16.0934 N/A
7:35 am 07:35 Cloudy 36 2.2 24 -4.2 63 63 N 21 33 30.48 1032 10 16.0934 N/A
7:55 am 07:55 Cloudy 36 2.2 24 -4.2 63 63 N 21 33 30.48 1032 10 16.0934 N/A
8:15 am 08:15 Cloudy 36 2.2 25 -4.1 63 63 N 18 30 30.48 1032 10 16.0934 N/A
8:35 am 08:35 Cloudy 36 2.1 24 -4.3 63 63 NNW 18 30 30.48 1032 10 16.0934 N/A
8:55 am 08:55 Cloudy 37 2.5 25 -4 63 63 NNW 24 39 30.48 1032 10 16.0934 N/A
9:15 am 09:15 Cloudy 37 3 25 -3.7 62 62 N 20 31 30.5 1033 10 16.0934 N/A
9:35 am 09:35 Cloudy 37 2.5 24 -4.2 62 62 NNW 25 41 30.5 1033 10 16.0934 N/A
9:55 am 09:55 Cloudy 37 2.8 25 -3.9 62 62 N 15 24 30.5 1033 10 16.0934 N/A
10:15 am 10:15 Mostly Cloudy 38 3.6 25 -3.9 58 58 N 20 31 30.53 1034 10 16.0934 N/A
10:35 am 10:35 Mostly Cloudy 40 4.4 25 -3.7 56 56 N 20 31 30.53 1034 10 16.0934 N/A
10:55 am 10:55 Partly Cloudy 39 4 25 -4.1 56 56 N 20 31 30.53 1034 10 16.0934 N/A
11:15 am 11:15 Partly Cloudy 40 4.6 25 -3.8 55 55 N 14 22 30.5 1033 10 16.0934 N/A
11:35 am 11:35 Partly Cloudy 41 5.2 26 -3.5 54 54 NNW 18 30 30.5 1033 10 16.0934 N/A
11:55 am 11:55 Sunny 41 5.2 25 -3.7 53 53 N 17 28 30.53 1034 10 16.0934 N/A
12:15 pm 12:15 Sunny 42 5.5 25 -3.7 52 52 NNW 12 19 30.53 1034 10 16.0934 N/A
12:35 pm 12:35 Sunny 43 6.1 25 -3.9 49 49 NNW 15 24 30.5 1033 10 16.0934 N/A
12:55 pm 12:55 Sunny 43 6.1 25 -3.9 49 49 NNW 15 24 30.5 1033 10 16.0934 N/A
1:15 pm 13:15 Sunny 43 6.2 24 -4.3 47 47 NNW 16 26 30.5 1033 10 16.0934 N/A
1:35 pm 13:35 Sunny 44 6.5 24 -4.3 46 46 N 13 20 30.48 1032 10 16.0934 N/A
1:55 pm 13:55 Sunny 45 7 24 -4.7 43 43 NNW 13 20 30.48 1032 10 16.0934 N/A
2:15 pm 14:15 Sunny 45 7.2 23 -5.1 42 42 N 15 24 30.48 1032 10 16.0934 N/A
2:35 pm 14:35 Sunny 46 7.5 23 -4.9 41 41 N 9 15 30.45 1031 10 16.0934 N/A
2:55 pm 14:55 Sunny 46 7.6 22 -5.5 39 39 NNW 10 17 30.45 1031 10 16.0934 N/A
3:15 pm 15:15 Sunny 46 7.6 21 -6.3 37 37 N 12 19 30.45 1031 10 16.0934 N/A
3:35 pm 15:35 Sunny 46 7.7 20 -6.5 36 36 N 9 15 30.45 1031 10 16.0934 N/A
3:55 pm 15:55 Sunny 46 7.7 20 -6.7 36 36 NNW 10 17 30.45 1031 10 16.0934 N/A
4:15 pm 16:15 Sunny 46 7.8 19 -7 35 35 NNW 8 13 30.45 1031 10 16.0934 N/A
4:35 pm 16:35 Sunny 46 7.7 20 -6.7 36 36 NW 7 11 30.45 1031 10 16.0934 N/A
4:55 pm 16:55 Sunny 45 7.2 20 -6.9 36 36 N 8 13 30.48 1032 10 16.0934 N/A
5:15 pm 17:15 Sunny 44 6.4 21 -6.3 40 40 NW 5 7 30.48 1032 10 16.0934 N/A
5:35 pm 17:35 Sunny 41 5 20 -6.9 42 42 N 3 6 30.5 1033 10 16.0934 N/A
5:55 pm 17:55 Clear 39 4.1 19 -7.1 44 44 Calm 30.53 1034 7 11.26538 N/A
6:15 pm 18:15 Clear 38 3.2 19 -7.4 46 46 W 3 6 30.53 1034 10 16.0934 N/A
6:35 pm 18:35 Clear 31 -0.3 19 -7.2 60 60 Calm 30.56 1035 7 11.26538 N/A
6:55 pm 18:55 Clear 30 -1 18 -7.6 61 61 Calm 30.56 1035 10 16.0934 N/A
7:15 pm 19:15 Clear 32 -0.2 19 -7 61 61 Calm 30.59 1036 7 11.26538 N/A
7:35 pm 19:35 Clear 30 -1.2 19 -7.2 64 64 Calm 30.59 1036 10 16.0934 N/A
7:55 pm 19:55 Clear 28 -2.5 20 -6.8 73 73 Calm 30.59 1036 7 11.26538 N/A
8:15 pm 20:15 Clear 28 -2.4 19 -7.4 69 69 Calm 30.59 1036 10 16.0934 N/A
8:35 pm 20:35 Clear 26 -3.5 19 -7.3 75 75 Calm 30.59 1036 10 16.0934 N/A
8:55 pm 20:55 Clear 23 -5 18 -7.8 81 81 Calm 30.62 1037 7 11.26538 N/A
9:15 pm 21:15 Clear 24 -4.4 19 -7.4 80 80 WNW 5 7 30.59 1036 10 16.0934 N/A
9:35 pm 21:35 Clear 22 -5.5 18 -7.8 84 84 W 5 7 30.62 1037 10 16.0934 N/A
9:55 pm 21:55 Clear 22 -5.5 18 -7.8 84 84 W 3 6 30.62 1037 10 16.0934 N/A
10:15 pm 22:15 Clear 22 -5.4 18 -7.7 84 84 Calm 30.62 1037 10 16.0934 N/A
10:35 pm 22:35 Clear 22 -5.8 17 -8.1 84 84 Calm 30.62 1037 10 16.0934 N/A
10:55 pm 22:55 Clear 19 -7 17 -8.5 89 89 N 3 6 30.65 1038 10 16.0934 N/A
11:15 pm 23:15 Clear 20 -6.7 16 -8.7 86 86 Calm 30.65 1038 10 16.0934 N/A
11:35 pm 23:35 Clear 20 -6.4 16 -8.8 83 83 Calm 30.62 1037 10 16.0934 N/A
11:55 pm 23:55 Clear 20 -6.7 16 -8.7 86 86 Calm 30.65 1038 10 16.0934 N/A

Powered by AerisWeather